TimeCST,TemperatureF,Dew PointF,Humidity,Sea Level PressureIn,VisibilityMPH,Wind Direction,Wind SpeedMPH,Gust SpeedMPH,PrecipitationIn,Events,Conditions,WindDirDegrees,DateUTC
12:53 AM,36.0,33.1,89,30.14,8.0,Calm,Calm,-,N/A,,Clear,0,2013-01-21 06:53:00
1:53 AM,34.0,32.0,92,30.13,7.0,Calm,Calm,-,N/A,,Clear,0,2013-01-21 07:53:00
2:53 AM,34.0,32.0,92,30.12,7.0,Calm,Calm,-,N/A,,Clear,0,2013-01-21 08:53:00
3:53 AM,33.1,30.9,92,30.11,10.0,Calm,Calm,-,N/A,,Clear,0,2013-01-21 09:53:00
4:53 AM,33.1,30.0,89,30.12,10.0,Calm,Calm,-,N/A,,Clear,0,2013-01-21 10:53:00
5:53 AM,32.0,30.0,92,30.14,9.0,Calm,Calm,-,N/A,,Clear,0,2013-01-21 11:53:00
6:53 AM,30.9,28.9,92,30.16,5.0,Calm,Calm,-,N/A,,Clear,0,2013-01-21 12:53:00
7:53 AM,37.9,36.0,93,30.17,8.0,Calm,Calm,-,N/A,,Clear,0,2013-01-21 13:53:00
8:53 AM,46.9,41.0,80,30.19,8.0,Calm,Calm,-,N/A,,Clear,0,2013-01-21 14:53:00
9:53 AM,57.0,41.0,55,30.20,10.0,Calm,Calm,-,N/A,,Clear,0,2013-01-21 15:53:00
10:53 AM,60.1,39.9,47,30.18,10.0,NW,10.4,-,N/A,,Clear,320,2013-01-21 16:53:00
11:53 AM,63.0,37.9,40,30.14,10.0,NW,12.7,-,N/A,,Clear,320,2013-01-21 17:53:00
12:53 PM,63.0,37.9,40,30.12,10.0,NNW,9.2,-,N/A,,Clear,340,2013-01-21 18:53:00
1:53 PM,64.0,37.9,38,30.11,10.0,NW,10.4,-,N/A,,Clear,310,2013-01-21 19:53:00
2:53 PM,64.0,37.0,37,30.12,10.0,WNW,12.7,17.3,N/A,,Clear,300,2013-01-21 20:53:00
3:53 PM,62.1,37.0,39,30.13,10.0,NW,6.9,-,N/A,,Clear,320,2013-01-21 21:53:00
4:53 PM,59.0,37.0,44,30.15,10.0,North,11.5,18.4,N/A,,Clear,350,2013-01-21 22:53:00
5:53 PM,53.1,37.0,55,30.16,10.0,NNW,5.8,-,N/A,,Clear,340,2013-01-21 23:53:00
6:53 PM,52.0,36.0,54,30.17,10.0,North,8.1,-,N/A,,Clear,350,2013-01-22 00:53:00
7:53 PM,46.9,36.0,66,30.19,10.0,NNW,5.8,-,N/A,,Clear,340,2013-01-22 01:53:00
8:53 PM,48.0,34.0,58,30.21,10.0,NNW,9.2,-,N/A,,Clear,330,2013-01-22 02:53:00
9:53 PM,45.0,30.9,58,30.21,10.0,North,5.8,-,N/A,,Clear,350,2013-01-22 03:53:00
10:53 PM,42.1,32.0,67,30.21,10.0,Calm,Calm,-,N/A,,Clear,0,2013-01-22 04:53:00
11:53 PM,42.1,28.9,60,30.21,10.0,NNW,3.5,-,N/A,,Clear,340,2013-01-22 05:53:00